sat.trackr.live / text

‹ back to catalog

STARLINK-30907

NORAD 58352 · 2023-177B

PAYLOAD ACTIVE UNKNOWN

§ Identity

Operator
Country
US
Launch date
2023-11-18
Launch site
AFETR
Launch vehicle
Mass (kg)
RCS (m²)

Purposes: comms

External: N2YO · Heavens-Above · Gunter

§ Orbital elements

Epoch: 2026-09-20T21:22:19.014240Z

Period
94.27 min
Inclination
43.0060°
Eccentricity
0.0001150
Mean motion
15.27579099 rev/d
Perigee alt
482.3 km
Apogee alt
483.8 km
Semi-major
6,861.2 km
B*
-5.4464e-6
RAAN
327.9711°
Arg perigee
281.7408°
Mean anomaly
78.3314°
Rev number
15,817

§ Raw data

STARLINK-309071 58352U 23177B   26263.89049785 -.00000412  00000+0 -54464-5 0  99982 58352  43.0060 327.9711 0001150 281.7408  78.3314 15.27579099158177

JSON: /api/v1/satellites/58352 · /tle

For live sub-satellite position, see the globe view (requires WebGL).

§ Visibility from observer

Set your observer location to see the next 7 days of passes ≥ 10°. The values pass through the URL so the page stays shareable.

No JS? Fill the form by hand. The geolocation button needs JavaScript.